GFSGBSN_850_rhum_288.txt.gz
RH
11 31 22 36 18 10 3 2 2 2 1 1 1 1 1 1 1 1 1 1 2 3 3 4 5 4 9 31 41 40 33 26 23 22 30 67 60 50 41 40 46 38 32 33 35 38 41
13 14 31 18 10 5 3 2 2 1 1 1 1 1 1 1 1 1 1 2 2 4 6 7 11 8 9 28 39 30 20 20 24 24 28 40 53 67 57 53 49 36 46 43 42 44 43
6 9 15 10 5 3 2 2 2 2 1 1 1 1 1 1 1 1 1 2 2 4 8 10 20 17 16 23 26 24 16 13 24 16 21 33 45 47 55 48 50 57 57 37 34 33 33
5 6 9 5 4 3 2 2 2 2 2 2 2 1 1 1 1 1 2 2 3 6 10 11 20 27 46 19 20 14 9 9 9 5 18 37 33 49 50 46 37 36 33 33 16 25 31
5 5 4 4 4 4 3 2 2 2 2 2 2 2 1 1 1 1 2 2 3 10 8 17 26 32 56 24 16 10 4 10 3 4 22 44 56 48 61 43 28 25 33 20 18 17 23
5 6 6 5 4 3 3 3 2 2 2 2 2 2 2 2 1 1 2 2 4 14 8 22 28 22 19 22 20 10 6 12 6 6 22 31 45 36 43 38 24 17 22 25 30 24 28
6 5 6 6 5 5 4 3 3 2 2 2 2 2 2 2 2 2 2 2 5 17 10 31 30 32 22 24 22 11 7 19 21 29 21 34 26 16 25 46 47 50 51 44 31 27 35
7 6 8 16 11 5 4 3 3 3 3 3 2 2 2 2 2 2 3 3 7 12 37 52 26 18 15 25 25 23 9 18 20 23 16 17 18 35 27 26 30 31 40 41 29 21 24
9 8 23 46 27 12 7 5 4 3 3 3 3 2 2 2 2 3 4 7 12 30 46 55 32 21 20 29 31 29 22 29 24 14 20 19 11 32 20 23 31 39 47 43 39 35 35
11 12 28 37 30 11 7 6 5 4 3 3 2 2 2 2 5 3 6 7 15 41 29 50 39 25 24 30 29 26 21 20 19 19 26 23 40 20 16 21 35 49 26 35 47 56 51
9 17 28 52 33 25 18 10 9 7 6 4 4 3 3 3 4 7 9 9 27 42 53 41 30 24 24 21 29 30 25 24 22 24 27 19 22 18 30 42 24 28 20 27 34 57 64
9 22 45 37 71 68 44 43 18 12 7 6 5 4 4 6 7 12 10 16 48 29 44 37 30 26 24 30 34 32 30 33 33 28 35 32 22 28 33 28 19 18 28 33 34 50 84
11 18 38 38 99 91 84 77 57 71 52 13 7 5 6 8 13 16 12 30 28 29 17 32 30 26 31 32 33 30 28 36 38 44 33 26 23 24 29 29 20 24 56 61 51 62 63
21 31 40 98 100 99 95 100 99 85 98 27 12 7 12 15 17 18 13 13 23 14 29 32 29 30 33 32 36 34 28 33 72 56 47 50 41 27 25 40 45 41 61 84 84 57 54
26 35 95 100 100 100 79 89 99 98 72 35 17 14 22 24 22 18 17 21 12 19 30 32 25 30 36 41 31 34 38 42 60 62 59 53 42 26 26 30 40 41 50 51 75 44 60
28 42 100 100 100 100 99 95 94 95 84 41 26 20 28 24 22 22 16 14 23 35 34 36 27 28 37 40 39 40 42 44 58 62 61 69 70 28 30 35 50 56 52 64 59 79 65
33 100 100 100 98 91 87 77 86 90 73 51 29 28 31 24 23 25 24 25 36 39 36 34 37 33 35 40 42 44 44 40 50 60 63 59 77 38 37 52 63 56 64 67 73 72 82
84 98 94 93 98 93 83 93 72 76 73 56 44 24 31 23 23 44 39 52 50 39 44 37 41 39 42 41 43 45 50 42 55 46 54 49 67 62 42 80 75 66 75 71 85 59 65
92 99 97 97 95 74 90 89 77 80 75 62 64 51 32 25 21 28 38 40 43 38 37 38 42 43 40 42 54 48 44 39 36 41 49 58 70 64 52 83 70 78 71 72 75 81 77
98 97 94 91 99 98 93 82 80 83 74 69 63 41 43 39 43 39 43 40 42 46 43 42 40 42 44 46 47 53 52 40 42 40 46 45 84 87 81 74 76 78 75 77 77 86 82
83 96 90 98 90 90 90 88 82 86 94 94 65 52 56 46 45 50 53 48 47 50 46 52 48 50 48 49 51 50 45 42 41 41 58 68 80 63 57 65 70 72 81 86 84 86 85
99 94 96 96 97 91 84 87 91 79 83 84 78 72 91 69 68 60 62 60 55 49 48 49 62 44 52 77 56 48 45 45 48 46 58 73 84 72 69 62 70 79 72 73 80 82 80
92 99 97 99 97 94 85 81 84 78 88 96 96 95 100 71 78 76 67 58 58 54 57 49 48 55 59 53 52 51 53 56 53 66 56 64 62 77 62 62 70 81 83 79 80 81 87
98 98 98 91 88 93 92 92 95 98 98 97 96 98 99 67 70 61 59 63 61 61 71 61 66 77 64 55 55 61 66 64 65 61 60 77 69 68 69 76 82 86 69 61 79 82 82
100 99 93 94 93 96 95 92 96 98 99 99 96 99 98 79 57 57 64 76 87 80 79 79 77 85 89 93 54 54 50 61 69 71 72 61 62 87 76 68 74 83 82 81 85 84 81
98 99 93 90 97 93 95 96 98 97 93 92 95 93 98 95 55 71 90 96 82 69 65 81 87 97 96 74 64 70 50 55 63 83 77 87 87 81 83 76 67 76 70 84 84 80 80
99 97 96 97 95 93 97 93 89 89 91 88 92 93 98 96 97 95 91 89 95 90 77 68 75 92 98 81 67 59 52 73 60 74 74 77 86 87 78 83 80 77 81 91 93 90 82
96 99 95 96 92 94 93 92 95 89 91 98 97 91 99 96 96 98 97 97 97 95 78 92 82 84 82 85 61 61 69 72 72 82 85 82 86 84 88 91 94 91 74 80 90 89 93
98 95 96 98 94 92 92 95 95 98 97 80 70 82 94 96 97 94 98 96 96 96 98 99 79 83 71 68 78 74 74 73 81 85 79 86 91 88 92 89 93 100 98 100 100 98 96

GFSGBSN_850_rhum_291.txt.gz
RH
7 12 14 12 7 4 2 2 2 1 1 1 1 1 1 1 1 1 1 2 2 3 4 4 5 4 12 27 32 31 24 19 34 32 35 41 42 30 28 19 25 28 24 22 22 24 27
12 21 12 9 6 4 3 2 2 2 1 1 1 1 1 1 1 1 1 2 2 3 5 7 10 8 21 20 32 27 22 16 18 30 35 33 35 45 40 33 32 25 28 30 29 27 26
15 28 19 24 9 5 3 2 2 2 2 2 1 1 1 1 1 1 1 2 2 3 7 9 14 16 21 24 23 15 10 9 10 9 33 39 39 38 32 30 31 37 37 23 19 17 18
11 13 11 11 10 5 3 2 2 2 2 2 2 1 1 1 1 1 1 2 2 5 9 11 20 34 33 19 24 13 5 20 21 21 15 28 36 40 34 28 25 21 20 22 11 14 15
10 10 10 9 6 5 4 3 2 2 2 2 2 2 1 1 1 1 2 2 3 7 9 19 37 44 44 24 24 7 6 10 17 15 36 49 46 35 32 40 26 16 18 14 11 9 12
11 12 14 14 8 5 4 3 2 2 2 2 2 2 2 1 1 1 1 2 3 7 8 23 22 24 23 25 18 13 6 14 17 19 24 18 16 29 24 29 35 25 25 19 17 13 14
9 11 15 13 9 5 4 3 3 2 2 2 2 2 2 2 2 2 2 3 18 29 22 22 37 27 25 27 24 18 7 18 17 17 16 19 22 16 16 22 27 25 24 19 14 12 16
6 9 12 10 8 6 5 4 4 3 3 2 2 2 2 2 2 2 2 5 5 14 30 45 38 30 25 23 22 23 21 16 12 14 14 13 14 24 22 20 21 20 24 24 18 15 17
5 8 8 7 7 8 8 8 5 4 3 3 2 2 2 2 2 3 3 6 8 19 37 47 36 24 25 31 26 26 24 19 17 10 14 15 10 23 19 18 22 23 30 29 27 21 21
4 6 8 10 14 20 18 16 8 10 6 4 3 3 2 2 7 3 8 5 7 24 31 40 36 28 24 30 27 29 28 21 14 16 19 15 25 20 15 14 12 26 21 21 31 36 44
5 10 14 26 50 46 30 17 25 23 10 6 4 3 3 3 3 13 8 7 13 40 60 42 31 25 25 24 25 29 30 20 16 16 21 16 20 17 18 16 29 34 17 18 23 41 48
8 13 22 33 50 68 69 62 80 70 25 9 5 4 4 8 7 10 10 10 31 40 54 37 26 24 23 25 29 27 24 25 25 24 19 22 23 19 21 24 24 17 21 26 30 42 73
12 18 28 55 99 97 86 84 94 76 52 14 8 6 6 8 27 13 11 50 36 33 16 29 27 23 24 24 27 25 22 31 35 30 19 19 19 20 22 24 21 22 45 66 55 67 60
21 36 47 95 85 81 80 96 98 100 36 15 12 9 11 15 17 18 14 20 24 14 15 27 24 24 25 26 27 27 27 26 59 50 40 38 39 23 23 31 35 30 40 60 68 54 40
32 43 68 78 79 96 98 98 95 69 35 31 20 21 26 21 20 20 24 23 16 19 24 24 22 26 21 33 28 28 28 35 41 49 46 43 36 24 23 23 27 32 46 44 62 40 61
29 26 71 94 99 92 86 66 60 54 57 47 29 34 43 23 22 22 20 17 16 28 28 28 19 17 20 23 33 28 33 36 46 46 51 54 62 26 22 26 34 48 43 57 48 78 66
19 33 85 94 92 91 73 78 68 77 72 47 53 31 40 23 21 27 27 20 28 33 30 28 25 24 22 26 27 29 34 40 33 44 48 49 55 41 27 39 54 47 54 55 56 56 66
13 84 92 96 74 71 76 90 77 74 71 67 62 32 31 23 26 22 42 44 45 30 36 31 32 31 30 27 31 31 39 36 37 34 44 43 56 52 36 73 67 58 60 61 79 50 58
30 91 69 71 84 98 93 90 76 74 75 82 57 43 34 24 24 21 24 30 34 31 30 31 34 34 29 32 39 30 28 28 31 30 42 56 56 64 47 82 73 68 69 68 67 73 73
37 67 64 73 94 95 85 83 80 86 80 83 60 38 34 36 33 32 36 35 34 36 33 33 33 31 32 35 29 39 34 31 34 32 35 41 69 80 65 58 80 82 71 70 74 83 80
57 96 97 93 94 92 82 80 86 90 78 79 66 45 56 41 36 39 43 44 40 42 40 36 36 39 40 44 35 32 31 30 30 32 36 47 63 42 50 52 64 66 74 78 81 76 86
85 73 94 96 92 83 87 79 76 75 70 96 68 67 82 59 51 49 43 47 51 44 44 44 50 42 37 70 62 52 34 32 35 28 40 43 72 66 61 49 52 68 68 71 79 74 77
59 96 93 94 85 88 88 85 90 95 98 96 96 92 93 55 46 71 46 43 46 45 47 41 42 44 48 41 45 55 48 41 36 46 38 56 63 66 63 77 56 74 65 69 75 74 82
69 88 87 83 88 94 94 94 95 94 94 98 99 97 96 64 42 38 41 43 44 57 57 54 51 53 48 58 58 62 51 42 39 39 40 62 57 57 71 71 82 80 58 53 68 75 73
77 97 98 93 93 88 87 90 95 95 97 98 100 99 95 76 53 54 52 49 50 57 90 59 51 79 86 82 82 87 56 46 45 42 49 49 70 73 85 55 78 80 74 80 77 88 74
96 96 90 89 96 87 88 98 96 92 93 91 86 97 98 96 61 80 62 70 67 66 51 46 81 100 99 88 86 80 57 37 57 75 57 67 75 89 80 72 67 74 63 72 72 83 72
95 93 97 97 94 97 93 92 92 94 90 81 94 93 98 92 76 98 92 83 69 68 66 55 62 77 90 80 84 74 53 47 46 45 70 68 77 87 77 69 86 71 68 76 92 90 74
88 97 93 94 99 93 93 94 96 90 92 89 84 92 94 91 82 96 94 97 85 82 76 72 74 68 75 80 68 66 50 67 64 75 75 74 86 83 81 84 90 84 68 81 88 78 80
77 95 97 97 94 95 94 93 92 96 87 70 65 72 93 98 97 94 93 92 92 98 100 90 76 63 92 82 69 55 53 56 71 79 67 83 88 86 89 88 90 95 92 99 98 90 89

GFSGBSN_850_rhum_294.txt.gz
RH
9 16 18 18 10 4 3 2 2 2 1 1 1 1 1 1 1 1 1 2 2 2 2 4 5 5 17 27 28 20 22 16 24 28 32 33 39 31 30 23 21 26 24 22 22 24 24
14 15 14 14 7 5 3 2 2 2 2 2 1 1 1 1 1 1 1 2 2 2 3 6 7 7 14 24 26 18 21 14 14 18 32 31 33 37 44 37 32 27 29 30 30 29 27
8 10 16 14 9 6 3 3 2 2 2 2 1 1 1 1 1 1 1 2 2 3 6 7 11 13 23 24 25 16 12 15 9 7 32 36 32 35 31 31 27 28 41 32 21 18 22
6 6 9 18 14 5 4 3 2 2 2 2 2 2 1 1 1 1 1 2 2 3 5 8 14 28 32 20 20 14 8 19 14 11 10 22 31 37 32 28 26 24 24 29 15 17 16
5 8 13 17 7 6 4 3 2 2 2 2 2 2 1 1 1 1 1 1 2 4 8 13 31 44 40 29 24 11 7 12 16 18 25 42 37 37 29 43 40 28 32 23 19 13 13
5 6 5 6 12 12 5 4 3 3 2 2 2 2 2 1 1 1 1 2 7 11 10 22 27 26 24 24 19 13 6 8 15 19 24 19 16 34 40 40 49 35 35 25 19 13 12
5 5 7 14 14 13 10 6 4 3 2 2 2 2 2 1 1 1 1 5 17 32 19 15 35 27 24 27 20 16 9 13 15 17 20 16 29 28 27 25 22 20 19 18 15 13 16
5 6 11 13 18 23 19 8 4 3 2 2 2 2 2 2 2 2 2 3 5 14 36 36 32 29 24 18 23 22 13 17 12 14 14 20 30 28 21 20 21 22 32 32 22 18 19
4 6 9 11 17 22 13 9 5 4 3 3 2 2 2 2 2 3 3 4 6 14 51 46 38 24 25 27 25 27 22 17 17 14 18 20 16 18 21 22 27 33 49 37 31 25 25
6 5 8 10 13 12 10 8 6 7 5 4 3 2 2 2 18 4 15 5 6 18 46 41 33 29 25 27 26 27 22 20 16 16 20 21 25 19 18 17 15 36 23 26 35 50 63
8 6 6 5 7 13 19 11 14 19 14 6 4 4 3 3 4 19 6 6 8 49 67 39 32 28 24 27 23 29 21 21 18 16 19 25 19 22 25 18 16 34 25 25 30 51 63
11 5 4 4 10 19 26 16 34 43 19 7 5 4 4 10 11 9 8 7 24 62 75 41 28 26 26 23 28 26 24 23 23 26 22 23 18 22 22 21 25 24 28 38 39 52 90
9 5 4 7 10 29 41 55 88 52 12 9 8 6 8 8 30 11 9 44 66 58 22 36 31 25 24 26 28 25 22 36 55 48 32 23 28 24 21 28 25 35 65 93 92 98 82
7 4 6 6 14 44 98 95 80 32 17 15 13 14 13 13 13 14 14 41 40 23 28 26 25 27 29 26 28 29 29 46 58 52 57 53 55 28 25 40 43 38 64 88 87 73 72
6 5 8 20 40 97 74 51 37 33 26 23 16 21 29 25 18 18 34 45 28 35 25 26 26 32 30 34 34 33 35 43 66 62 66 58 39 28 24 24 34 39 73 59 90 60 73
4 10 23 63 95 81 55 66 63 41 23 23 20 37 40 26 20 20 37 24 26 27 28 28 24 15 22 29 38 36 35 46 61 41 46 62 79 32 28 27 33 58 50 77 86 96 88
5 18 71 81 57 54 63 73 73 44 36 32 49 43 42 21 20 37 45 31 32 31 28 30 28 28 23 26 27 31 41 50 37 54 44 61 79 48 40 62 65 75 93 88 70 79 90
8 29 59 41 58 80 86 85 77 64 61 47 64 47 42 31 36 29 63 51 37 32 36 34 34 38 37 30 31 34 46 47 34 38 69 67 80 84 51 80 80 79 74 74 92 76 85
16 20 27 38 64 95 87 83 80 72 75 59 71 51 43 22 39 30 28 30 32 32 34 32 35 38 33 34 48 33 31 26 35 39 57 70 85 87 58 94 83 85 83 80 80 87 95
18 25 44 57 94 94 81 79 80 82 82 67 71 49 40 39 31 33 42 45 43 35 36 31 35 32 36 38 35 52 35 30 30 30 30 42 82 87 89 73 90 95 87 83 86 100 97
26 40 80 76 79 84 83 84 74 71 72 62 71 48 53 49 42 43 45 49 50 51 39 39 40 44 51 54 46 41 38 36 41 44 38 52 92 76 54 46 85 84 88 91 98 92 96
27 44 78 85 93 77 88 82 76 78 86 80 85 92 88 65 59 55 49 49 48 49 50 51 58 50 52 75 73 77 61 50 44 30 44 48 91 64 91 48 70 80 82 86 94 88 94
30 51 51 78 77 92 92 96 92 82 88 89 98 94 93 71 52 51 50 52 50 50 46 52 50 52 53 47 48 52 49 54 51 62 48 64 84 84 88 49 56 96 90 87 91 86 94
38 42 86 93 99 98 96 88 80 95 83 93 93 97 95 77 55 50 44 43 48 51 60 51 53 90 69 60 57 56 58 59 56 45 42 76 77 73 92 69 95 96 71 63 87 93 87
36 84 97 97 99 98 93 80 88 91 95 98 97 98 96 93 60 59 69 94 69 52 68 80 91 94 68 74 81 86 90 87 84 54 46 44 69 89 91 76 93 93 84 92 88 100 89
57 81 81 82 89 89 88 95 86 93 93 86 84 93 98 97 71 90 91 73 81 75 63 51 86 73 83 84 84 93 70 73 92 93 63 66 78 94 94 92 94 93 74 73 73 100 91
53 54 92 85 87 92 94 91 93 93 92 86 79 90 98 96 83 85 92 96 95 85 86 60 88 88 85 79 78 84 76 64 75 86 87 88 93 95 90 92 97 88 75 75 100 100 86
43 58 81 87 95 92 94 92 94 84 88 85 78 75 97 96 91 96 91 99 95 85 91 78 83 72 81 92 88 71 92 94 85 93 97 92 100 97 84 98 99 96 86 90 97 98 94
36 53 73 93 96 95 95 93 86 95 94 73 58 74 98 98 97 96 96 92 95 100 100 86 77 84 93 95 90 88 88 77 88 100 82 96 100 100 100 99 96 97 97 99 100 100 99

GFSGBSN_850_rhum_300.txt.gz
RH
5 4 3 3 2 2 2 2 2 1 1 1 1 1 1 1 1 1 1 1 1 2 2 4 5 7 15 22 18 16 17 15 13 19 27 39 40 39 36 38 36 36 34 30 31 31 30
6 4 4 3 2 2 2 2 2 2 1 1 1 1 1 1 1 1 1 1 1 2 2 4 6 7 13 21 13 18 15 13 11 21 24 33 37 37 40 44 38 33 31 32 31 30 30
5 4 4 3 3 3 2 2 2 2 1 1 1 1 1 1 1 1 1 1 1 2 2 4 6 9 15 18 17 17 14 13 10 11 27 26 31 35 32 32 32 28 30 28 26 24 22
4 4 4 4 4 3 2 2 2 1 1 1 1 1 1 1 1 1 1 1 1 2 3 5 10 15 20 23 23 19 13 15 11 8 7 9 12 17 27 30 30 26 28 29 20 26 13
7 6 6 4 4 3 3 2 2 2 2 2 1 1 1 1 1 1 1 1 2 6 8 9 22 26 39 31 25 16 10 8 8 10 11 25 18 31 37 48 44 43 29 39 26 16 15
10 8 6 5 4 3 3 2 2 2 2 2 2 1 1 1 1 1 1 2 7 13 13 21 23 22 26 25 22 17 13 9 8 13 17 18 30 48 54 49 29 39 48 29 25 19 21
15 11 8 5 4 3 3 2 3 3 2 2 1 1 1 1 1 1 2 2 5 13 5 10 24 31 26 24 20 20 14 10 14 17 28 22 22 31 36 36 24 22 21 23 22 23 20
23 19 10 6 3 2 2 3 4 3 2 2 2 2 2 2 2 3 3 2 5 11 14 24 39 31 25 21 21 22 16 15 15 22 17 24 26 25 27 21 20 21 23 28 27 26 20
36 28 13 5 3 3 3 4 4 4 3 3 3 3 3 3 6 4 4 5 7 16 30 35 34 26 24 24 26 23 16 18 16 16 18 28 24 27 24 22 27 29 50 31 28 28 28
48 32 15 4 3 4 4 4 4 6 6 6 7 8 8 8 10 5 5 5 10 37 40 34 36 29 25 26 27 20 17 20 19 20 18 19 21 25 19 19 19 39 28 30 34 46 50
52 34 16 3 3 4 4 6 8 10 11 11 11 11 11 9 7 5 6 5 13 47 44 40 33 27 23 26 28 27 20 19 20 20 15 19 29 23 25 23 16 28 26 27 38 69 71
58 31 15 2 2 4 7 10 11 12 13 14 13 13 12 10 10 9 4 5 26 46 40 44 29 27 27 26 28 26 25 22 24 27 26 22 21 21 25 28 24 32 38 45 61 76 87
65 26 9 2 3 8 14 13 13 15 15 14 13 13 13 13 12 7 5 15 50 51 23 34 32 30 30 32 36 28 30 40 43 35 34 31 25 26 24 30 36 48 65 76 76 92 74
75 24 5 2 6 15 15 14 16 16 14 14 14 15 16 18 13 9 8 24 24 22 35 26 29 28 31 29 30 31 33 52 70 62 60 64 49 32 28 52 50 47 64 81 77 90 78
69 24 5 4 15 14 15 17 18 16 16 16 18 18 24 17 12 10 17 44 25 30 29 29 26 34 36 34 29 35 39 60 62 68 57 72 50 36 32 28 39 52 65 59 76 84 100
64 26 8 10 16 15 16 20 18 19 19 19 19 26 30 27 15 15 27 25 30 29 29 29 24 28 29 41 38 42 46 61 71 57 40 60 60 38 38 34 55 53 54 74 92 100 100
77 31 7 16 16 17 21 21 19 21 21 21 25 33 39 23 22 20 43 41 36 31 29 29 33 34 30 29 46 45 55 58 54 58 48 73 70 55 44 63 64 63 90 91 80 86 97
53 10 12 17 18 22 27 23 31 29 23 22 28 39 38 43 37 53 75 68 45 34 32 30 33 37 39 37 40 38 52 51 47 52 69 74 86 97 75 74 85 84 78 83 94 91 95
44 9 16 19 24 28 29 39 42 36 35 37 42 54 52 33 39 47 40 36 34 33 37 41 42 42 39 43 52 43 33 30 51 55 74 74 96 100 66 61 78 88 88 86 91 96 93
27 19 20 23 26 33 36 55 53 50 47 42 52 56 54 44 43 42 63 60 54 46 39 36 38 37 41 48 49 58 41 36 42 48 47 54 91 72 68 56 83 100 100 93 90 97 96
35 23 48 28 30 47 56 66 65 66 57 49 64 74 64 63 60 67 64 62 63 63 47 43 50 49 59 65 55 55 53 46 43 44 42 74 95 85 57 56 82 76 86 95 96 90 86
44 82 32 35 41 63 70 71 74 74 64 59 58 80 91 83 74 71 67 75 67 64 64 62 70 59 70 74 69 76 59 61 66 59 75 98 88 93 92 67 74 84 88 94 95 96 99
96 37 31 40 70 75 74 81 74 80 78 70 95 96 91 80 82 80 79 67 62 62 62 55 66 84 79 71 66 66 64 57 64 73 95 96 97 95 91 70 71 92 89 98 96 97 86
59 31 46 74 74 71 79 82 76 87 88 97 89 92 98 90 92 73 61 64 73 77 93 81 81 87 84 90 88 90 78 95 95 86 60 94 94 92 92 92 100 80 88 77 90 96 98
33 56 67 63 71 76 76 88 96 91 96 99 94 96 96 97 83 76 84 82 93 80 84 79 88 96 95 93 97 96 88 89 83 73 85 74 89 95 96 97 90 94 93 97 97 94 97
52 63 66 65 62 67 89 95 86 95 89 92 96 98 95 99 92 98 94 94 96 99 84 78 84 82 89 93 93 97 94 78 84 90 87 94 95 93 94 99 99 99 91 97 96 96 100
63 64 52 53 77 92 90 86 93 97 85 86 85 90 99 97 96 96 96 98 97 97 96 93 88 82 81 94 88 96 91 80 98 96 95 94 95 97 97 97 98 94 96 96 98 96 98
45 48 47 67 73 71 84 93 91 84 84 82 92 84 84 98 97 92 90 93 93 94 96 81 74 82 97 96 97 93 99 95 92 94 96 93 97 95 95 98 98 96 92 93 99 98 99
39 49 51 51 61 73 93 96 92 92 81 79 84 70 79 83 99 97 97 97 95 96 100 95 97 91 89 95 94 90 90 90 97 96 90 95 98 96 99 98 98 100 100 100 98 98 100